Simultaneous Nadir Overpasses (SNOs) Predictions

Prediction of SNOs between GOES-16 and TERRA Satellite Orbit:

Table of predicted SNOs for the next 14.0 days since TLE Epoch: 10/19/2019
Index Date Time (GOES-16) GOES-16 Lat,Lon TERRA Lat,Lon Distance(km) Time Diff (sec)
1 10/20/2019 03:23:22 -0.02, -75.19 0.41, -73.09 238.60 80
2 10/20/2019 15:41:58 0.02, -75.21 0.65, -78.25 346.03 80
3 10/22/2019 15:29:47 0.02, -75.21 0.02, -75.30 9.94 80
4 10/24/2019 15:20:16 0.03, -75.22 -0.60, -72.35 327.04 80
5 10/25/2019 03:41:40 -0.02, -75.21 -0.54, -77.53 264.88 80
6 10/27/2019 03:29:30 -0.01, -75.23 0.13, -74.59 72.23 80
7 10/29/2019 03:17:20 -0.00, -75.25 0.78, -71.65 409.96 80
8 10/29/2019 15:35:55 0.00, -75.27 0.30, -76.81 174.33 80
9 10/31/2019 15:26:25 0.01, -75.30 -0.28, -73.85 164.16 80
10 11/01/2019 03:45:09 -0.01, -75.29 -0.80, -79.05 427.24 80




NCC Satellite Simultaneous Nadir Overpasses (SNOs) Prediction Service
